Time,TemperatureF,DewpointF,PressureIn,WindDirection,WindDirectionDegrees,WindSpeedMPH,WindSpeedGustMPH,Humidity,HourlyPrecipIn,Conditions,Clouds,dailyrainin,SoftwareType,DateUTC
2013-03-28 00:02:00,57.2,42.1,29.29,ENE,72,6.3,8.3,57,0.00,,,0.00,LWC V2.10 B1813,2013-03-28 05:02:00,
2013-03-28 00:07:00,57.2,42.6,29.29,ESE,111,8.3,8.3,58,0.00,,,0.00,LWC V2.10 B1813,2013-03-28 05:07:00,
2013-03-28 00:12:00,57.2,42.6,29.29,ENE,71,6.3,7.6,58,0.00,,,0.00,LWC V2.10 B1813,2013-03-28 05:12:00,
2013-03-28 00:17:00,57.2,43.4,29.29,SSE,159,8.7,8.7,60,0.00,,,0.00,LWC V2.10 B1813,2013-03-28 05:17:00,
2013-03-28 00:22:00,56.8,43.1,29.29,SSE,166,6.3,10.1,60,0.00,,,0.00,LWC V2.10 B1813,2013-03-28 05:22:00,
2013-03-28 00:27:00,56.8,43.5,29.29,ESE,115,3.6,7.6,61,0.00,,,0.00,LWC V2.10 B1813,2013-03-28 05:27:00,
2013-03-28 00:32:00,56.7,43.8,29.29,SSE,154,8.1,8.1,62,0.00,,,0.00,LWC V2.10 B1813,2013-03-28 05:32:00,
2013-03-28 00:37:00,56.5,43.6,29.29,ESE,117,5.4,6.3,62,0.00,,,0.00,LWC V2.10 B1813,2013-03-28 05:37:00,
2013-03-28 00:42:00,56.5,44.0,29.29,SE,138,6.3,6.7,63,0.00,,,0.00,LWC V2.10 B1813,2013-03-28 05:42:00,
2013-03-28 00:47:00,56.5,44.5,29.29,ESE,119,3.1,8.1,64,0.00,,,0.00,LWC V2.10 B1813,2013-03-28 05:47:00,
2013-03-28 00:52:00,56.3,44.3,29.29,SSE,164,7.6,8.3,64,0.00,,,0.00,LWC V2.10 B1813,2013-03-28 05:52:00,
2013-03-28 00:57:00,56.3,44.3,29.29,ESE,114,3.6,8.1,64,0.00,,,0.00,LWC V2.10 B1813,2013-03-28 05:57:00,
2013-03-28 01:02:00,56.1,44.5,29.26,SSE,154,4.0,8.3,65,0.00,,,0.00,LWC V2.10 B1813,2013-03-28 06:02:00,
2013-03-28 01:07:00,56.1,44.5,29.26,ESE,107,6.3,8.1,65,0.00,,,0.00,LWC V2.10 B1813,2013-03-28 06:07:00,
2013-03-28 01:12:00,55.9,44.7,29.26,SE,130,3.6,8.1,66,0.00,,,0.00,LWC V2.10 B1813,2013-03-28 06:12:00,
2013-03-28 01:17:00,55.9,44.7,29.26,ESE,116,5.8,5.8,66,0.00,,,0.00,LWC V2.10 B1813,2013-03-28 06:17:00,
2013-03-28 01:22:00,55.9,45.1,29.26,SE,124,5.8,7.6,67,0.00,,,0.00,LWC V2.10 B1813,2013-03-28 06:22:00,
2013-03-28 01:27:00,55.9,45.1,29.26,ESE,113,5.4,8.3,67,0.00,,,0.00,LWC V2.10 B1813,2013-03-28 06:27:00,
2013-03-28 01:32:00,55.8,45.0,29.26,South,177,4.9,6.3,67,0.00,,,0.00,LWC V2.10 B1813,2013-03-28 06:32:00,
2013-03-28 01:37:00,55.6,45.2,29.26,ENE,73,4.9,8.7,68,0.00,,,0.00,LWC V2.10 B1813,2013-03-28 06:37:00,
2013-03-28 01:42:00,55.8,45.4,29.26,SSE,150,3.6,6.3,68,0.00,,,0.00,LWC V2.10 B1813,2013-03-28 06:42:00,
2013-03-28 01:47:00,55.6,45.6,29.26,East,97,6.3,8.3,69,0.00,,,0.00,LWC V2.10 B1813,2013-03-28 06:47:00,
2013-03-28 01:52:00,55.6,45.6,29.26,ESE,110,4.9,7.6,69,0.00,,,0.00,LWC V2.10 B1813,2013-03-28 06:52:00,
2013-03-28 01:57:00,55.6,46.0,29.26,SE,127,3.1,9.6,70,0.00,,,0.00,LWC V2.10 B1813,2013-03-28 06:57:00,
2013-03-28 02:02:00,55.4,45.8,29.26,SSE,158,5.8,6.3,70,0.00,,,0.00,LWC V2.10 B1813,2013-03-28 07:02:00,
2013-03-28 02:07:00,55.2,45.6,29.26,East,88,5.4,7.6,70,0.00,,,0.00,LWC V2.10 B1813,2013-03-28 07:07:00,
2013-03-28 02:12:00,55.0,45.8,29.26,NE,51,3.6,5.4,71,0.00,,,0.00,LWC V2.10 B1813,2013-03-28 07:12:00,
2013-03-28 02:17:00,55.0,45.8,29.26,South,169,4.9,6.3,71,0.00,,,0.00,LWC V2.10 B1813,2013-03-28 07:17:00,
2013-03-28 02:22:00,55.0,45.8,29.26,SSE,149,3.6,3.6,71,0.00,,,0.00,LWC V2.10 B1813,2013-03-28 07:22:00,
2013-03-28 02:27:00,55.0,46.2,29.26,SE,142,3.6,6.3,72,0.00,,,0.00,LWC V2.10 B1813,2013-03-28 07:27:00,
2013-03-28 02:32:00,55.0,46.2,29.26,ESE,122,2.7,6.3,72,0.00,,,0.00,LWC V2.10 B1813,2013-03-28 07:32:00,
2013-03-28 02:37:00,55.0,46.5,29.26,SSE,149,8.1,8.3,73,0.00,,,0.00,LWC V2.10 B1813,2013-03-28 07:37:00,
2013-03-28 02:42:00,55.2,46.7,29.26,ESE,107,5.4,7.2,73,0.00,,,0.00,LWC V2.10 B1813,2013-03-28 07:42:00,
2013-03-28 02:47:00,55.2,47.1,29.26,ENE,72,5.4,6.3,74,0.00,,,0.00,LWC V2.10 B1813,2013-03-28 07:47:00,
2013-03-28 02:52:00,55.4,46.9,29.26,SSE,151,5.8,5.8,73,0.00,,,0.00,LWC V2.10 B1813,2013-03-28 07:52:00,
2013-03-28 02:57:00,55.4,47.3,29.26,SE,135,3.6,5.8,74,0.00,,,0.00,LWC V2.10 B1813,2013-03-28 07:57:00,
2013-03-28 03:02:00,55.4,47.3,29.26,ESE,120,5.8,7.2,74,0.00,,,0.00,LWC V2.10 B1813,2013-03-28 08:02:00,
2013-03-28 03:07:00,55.4,47.3,29.26,South,182,8.3,8.3,74,0.00,,,0.00,LWC V2.10 B1813,2013-03-28 08:07:00,
2013-03-28 03:12:00,55.2,47.4,29.26,East,92,6.3,7.6,75,0.00,,,0.00,LWC V2.10 B1813,2013-03-28 08:12:00,
2013-03-28 03:17:00,55.2,47.4,29.24,ESE,120,7.6,7.6,75,0.00,,,0.00,LWC V2.10 B1813,2013-03-28 08:17:00,
2013-03-28 03:22:00,55.0,47.3,29.24,SSE,160,6.3,7.6,75,0.00,,,0.00,LWC V2.10 B1813,2013-03-28 08:22:00,
2013-03-28 03:27:00,55.0,47.3,29.24,ESE,102,4.0,8.3,75,0.00,,,0.00,LWC V2.10 B1813,2013-03-28 08:27:00,
2013-03-28 03:33:00,55.0,47.6,29.24,ESE,105,7.2,7.2,76,0.00,,,0.00,LWC V2.10 B1813,2013-03-28 08:33:00,
2013-03-28 03:38:00,55.0,47.6,29.24,SE,130,8.1,8.1,76,0.00,,,0.00,LWC V2.10 B1813,2013-03-28 08:38:00,
2013-03-28 03:43:00,54.9,47.4,29.24,SE,137,6.3,6.3,76,0.00,,,0.00,LWC V2.10 B1813,2013-03-28 08:43:00,
2013-03-28 03:48:00,54.9,47.4,29.24,SE,130,3.6,7.6,76,0.00,,,0.00,LWC V2.10 B1813,2013-03-28 08:48:00,
2013-03-28 03:53:00,55.0,48.0,29.24,East,95,5.4,8.1,77,0.00,,,0.00,LWC V2.10 B1813,2013-03-28 08:53:00,
2013-03-28 03:58:00,54.9,47.8,29.24,East,97,5.8,8.1,77,0.00,,,0.00,LWC V2.10 B1813,2013-03-28 08:58:00,
2013-03-28 04:03:00,55.0,48.0,29.24,ESE,105,4.9,8.3,77,0.00,,,0.00,LWC V2.10 B1813,2013-03-28 09:03:00,
2013-03-28 04:08:00,55.2,48.1,29.24,ESE,104,7.6,7.6,77,0.00,,,0.00,LWC V2.10 B1813,2013-03-28 09:08:00,
2013-03-28 04:13:00,55.2,48.1,29.24,ESE,114,5.8,8.7,77,0.00,,,0.00,LWC V2.10 B1813,2013-03-28 09:13:00,
2013-03-28 04:18:00,55.4,48.3,29.24,SE,124,4.5,8.3,77,0.00,,,0.00,LWC V2.10 B1813,2013-03-28 09:18:00,
2013-03-28 04:23:00,55.4,48.3,29.24,SE,142,6.3,7.6,77,0.00,,,0.00,LWC V2.10 B1813,2013-03-28 09:23:00,
2013-03-28 04:28:00,55.6,48.5,29.24,ESE,123,5.4,8.3,77,0.00,,,0.00,LWC V2.10 B1813,2013-03-28 09:28:00,
2013-03-28 04:33:00,55.4,48.3,29.24,ESE,110,5.4,7.6,77,0.00,,,0.00,LWC V2.10 B1813,2013-03-28 09:33:00,
2013-03-28 04:38:00,55.4,48.3,29.24,East,99,3.6,8.7,77,0.00,,,0.00,LWC V2.10 B1813,2013-03-28 09:38:00,
2013-03-28 04:43:00,55.4,48.3,29.24,ESE,104,5.8,7.6,77,0.00,,,0.00,LWC V2.10 B1813,2013-03-28 09:43:00,
2013-03-28 04:48:00,55.6,48.5,29.24,ESE,115,5.8,5.8,77,0.00,,,0.00,LWC V2.10 B1813,2013-03-28 09:48:00,
2013-03-28 04:53:00,55.6,48.5,29.24,ESE,102,6.3,8.3,77,0.00,,,0.00,LWC V2.10 B1813,2013-03-28 09:53:00,
2013-03-28 04:58:00,55.8,48.7,29.24,ESE,112,5.8,8.1,77,0.00,,,0.00,LWC V2.10 B1813,2013-03-28 09:58:00,
2013-03-28 05:03:00,55.8,48.7,29.24,ESE,109,7.6,7.6,77,0.00,,,0.00,LWC V2.10 B1813,2013-03-28 10:03:00,
2013-03-28 05:08:00,55.9,48.8,29.24,East,83,8.7,8.7,77,0.00,,,0.00,LWC V2.10 B1813,2013-03-28 10:08:00,
2013-03-28 05:13:00,55.9,48.8,29.24,ENE,78,5.4,5.8,77,0.00,,,0.00,LWC V2.10 B1813,2013-03-28 10:13:00,
2013-03-28 05:18:00,55.9,48.8,29.24,ESE,105,3.6,7.6,77,0.00,,,0.00,LWC V2.10 B1813,2013-03-28 10:18:00,
2013-03-28 05:23:00,55.9,48.8,29.24,East,84,8.3,8.3,77,0.00,,,0.00,LWC V2.10 B1813,2013-03-28 10:23:00,
2013-03-28 05:28:00,55.9,48.8,29.24,East,99,5.4,6.3,77,0.00,,,0.00,LWC V2.10 B1813,2013-03-28 10:28:00,
2013-03-28 05:33:00,56.1,49.0,29.24,ESE,110,8.7,8.7,77,0.00,,,0.00,LWC V2.10 B1813,2013-03-28 10:33:00,
2013-03-28 05:38:00,56.1,49.0,29.24,ESE,121,4.9,8.1,77,0.00,,,0.00,LWC V2.10 B1813,2013-03-28 10:38:00,
2013-03-28 05:43:00,56.1,49.0,29.24,SE,126,2.7,7.6,77,0.00,,,0.00,LWC V2.10 B1813,2013-03-28 10:43:00,
2013-03-28 05:48:00,56.1,49.0,29.24,ENE,78,5.8,5.8,77,0.00,,,0.00,LWC V2.10 B1813,2013-03-28 10:48:00,
2013-03-28 05:53:00,56.1,49.0,29.24,ESE,119,4.0,5.8,77,0.00,,,0.00,LWC V2.10 B1813,2013-03-28 10:53:00,
2013-03-28 05:58:00,56.1,49.0,29.24,East,95,7.6,7.6,77,0.00,,,0.00,LWC V2.10 B1813,2013-03-28 10:58:00,
2013-03-28 06:03:00,56.1,49.0,29.24,East,97,8.3,8.3,77,0.00,,,0.00,LWC V2.10 B1813,2013-03-28 11:03:00,
2013-03-28 06:08:00,56.1,49.4,29.24,East,96,3.1,7.6,78,0.00,,,0.00,LWC V2.10 B1813,2013-03-28 11:08:00,
2013-03-28 06:13:00,56.1,49.4,29.24,ESE,110,8.3,8.3,78,0.00,,,0.00,LWC V2.10 B1813,2013-03-28 11:13:00,
2013-03-28 06:18:00,56.1,49.4,29.24,East,89,4.0,7.6,78,0.00,,,0.00,LWC V2.10 B1813,2013-03-28 11:18:00,
2013-03-28 06:23:00,56.1,49.4,29.24,East,98,7.6,7.6,78,0.00,,,0.00,LWC V2.10 B1813,2013-03-28 11:23:00,
2013-03-28 06:28:00,56.1,49.4,29.24,ESE,114,7.6,11.0,78,0.00,,,0.00,LWC V2.10 B1813,2013-03-28 11:28:00,
2013-03-28 06:33:00,56.1,49.7,29.26,East,101,3.6,7.2,79,0.00,,,0.00,LWC V2.10 B1813,2013-03-28 11:33:00,
2013-03-28 06:38:00,56.1,49.7,29.26,ENE,76,7.6,10.1,79,0.00,,,0.00,LWC V2.10 B1813,2013-03-28 11:38:00,
2013-03-28 06:43:00,56.1,49.7,29.26,ESE,104,3.6,8.1,79,0.00,,,0.00,LWC V2.10 B1813,2013-03-28 11:43:00,
2013-03-28 06:48:00,56.1,49.7,29.26,ESE,108,6.3,7.6,79,0.00,,,0.00,LWC V2.10 B1813,2013-03-28 11:48:00,
2013-03-28 06:53:00,56.1,49.7,29.26,ESE,116,8.7,8.7,79,0.00,,,0.00,LWC V2.10 B1813,2013-03-28 11:53:00,
2013-03-28 06:58:00,56.1,49.7,29.26,East,79,3.6,7.6,79,0.00,,,0.00,LWC V2.10 B1813,2013-03-28 11:58:00,
2013-03-28 07:03:00,56.1,49.7,29.26,East,86,5.8,8.3,79,0.00,,,0.00,LWC V2.10 B1813,2013-03-28 12:03:00,
2013-03-28 07:08:00,56.3,49.9,29.26,ESE,121,6.3,8.7,79,0.00,,,0.00,LWC V2.10 B1813,2013-03-28 12:08:00,
2013-03-28 07:13:00,56.3,49.9,29.26,East,96,4.0,6.3,79,0.00,,,0.00,LWC V2.10 B1813,2013-03-28 12:13:00,
2013-03-28 07:18:00,56.3,49.9,29.26,East,86,4.0,9.6,79,0.00,,,0.00,LWC V2.10 B1813,2013-03-28 12:18:00,
2013-03-28 07:23:00,56.3,49.9,29.26,SE,140,5.8,7.6,79,0.00,,,0.00,LWC V2.10 B1813,2013-03-28 12:23:00,
2013-03-28 07:28:00,56.3,49.9,29.26,ENE,71,7.2,8.3,79,0.00,,,0.00,LWC V2.10 B1813,2013-03-28 12:28:00,
2013-03-28 07:33:00,56.3,49.9,29.26,East,82,8.7,8.7,79,0.00,,,0.00,LWC V2.10 B1813,2013-03-28 12:33:00,
2013-03-28 07:38:00,56.3,49.9,29.26,ESE,116,5.8,8.7,79,0.00,,,0.00,LWC V2.10 B1813,2013-03-28 12:38:00,
2013-03-28 07:43:00,56.3,49.9,29.26,East,88,5.4,8.7,79,0.00,,,0.00,LWC V2.10 B1813,2013-03-28 12:43:00,
2013-03-28 07:48:00,56.3,49.9,29.26,ENE,76,6.3,8.1,79,0.00,,,0.00,LWC V2.10 B1813,2013-03-28 12:48:00,
2013-03-28 07:53:00,56.3,49.9,29.26,East,83,6.3,6.7,79,0.00,,,0.00,LWC V2.10 B1813,2013-03-28 12:53:00,
2013-03-28 07:58:00,56.5,50.4,29.26,ESE,118,4.0,9.6,80,0.00,,,0.00,LWC V2.10 B1813,2013-03-28 12:58:00,
2013-03-28 08:03:00,56.5,50.4,29.26,ENE,62,4.9,4.9,80,0.00,,,0.00,LWC V2.10 B1813,2013-03-28 13:03:00,
2013-03-28 08:08:00,56.7,50.6,29.26,ESE,108,9.2,9.2,80,0.00,,,0.00,LWC V2.10 B1813,2013-03-28 13:08:00,
2013-03-28 08:13:00,56.7,50.6,29.26,East,87,4.9,8.7,80,0.00,,,0.00,LWC V2.10 B1813,2013-03-28 13:13:00,
2013-03-28 08:18:00,56.8,50.7,29.26,ENE,73,5.8,8.3,80,0.00,,,0.00,LWC V2.10 B1813,2013-03-28 13:18:00,
2013-03-28 08:23:00,56.8,50.7,29.26,East,87,3.6,8.3,80,0.00,,,0.00,LWC V2.10 B1813,2013-03-28 13:23:00,
2013-03-28 08:28:00,57.0,50.9,29.26,ESE,111,3.6,8.7,80,0.00,,,0.00,LWC V2.10 B1813,2013-03-28 13:28:00,
2013-03-28 08:33:00,57.2,51.1,29.26,East,85,5.8,7.2,80,0.00,,,0.00,LWC V2.10 B1813,2013-03-28 13:33:00,
2013-03-28 08:38:00,57.2,51.1,29.26,ESE,119,6.3,8.7,80,0.00,,,0.00,LWC V2.10 B1813,2013-03-28 13:38:00,
2013-03-28 08:43:00,57.4,51.3,29.26,East,93,5.4,11.0,80,0.00,,,0.00,LWC V2.10 B1813,2013-03-28 13:43:00,
2013-03-28 08:48:00,57.6,51.4,29.29,East,99,9.6,9.6,80,0.00,,,0.00,LWC V2.10 B1813,2013-03-28 13:48:00,
2013-03-28 08:53:00,57.7,51.6,29.29,ESE,119,8.1,8.1,80,0.00,,,0.00,LWC V2.10 B1813,2013-03-28 13:53:00,
2013-03-28 08:58:00,57.7,51.6,29.29,SE,135,8.7,9.6,80,0.00,,,0.00,LWC V2.10 B1813,2013-03-28 13:58:00,
2013-03-28 09:03:00,57.9,51.8,29.29,East,90,5.4,8.7,80,0.00,,,0.00,LWC V2.10 B1813,2013-03-28 14:03:00,
2013-03-28 09:08:00,58.1,52.0,29.29,SE,131,5.4,8.1,80,0.00,,,0.00,LWC V2.10 B1813,2013-03-28 14:08:00,
2013-03-28 09:13:00,58.3,52.1,29.29,ESE,116,8.7,8.7,80,0.00,,,0.00,LWC V2.10 B1813,2013-03-28 14:13:00,
2013-03-28 09:18:00,58.5,52.3,29.29,East,88,4.0,8.3,80,0.00,,,0.00,LWC V2.10 B1813,2013-03-28 14:18:00,
2013-03-28 09:23:00,58.6,52.5,29.29,ENE,70,4.0,9.6,80,0.00,,,0.00,LWC V2.10 B1813,2013-03-28 14:23:00,
2013-03-28 09:28:00,58.6,52.5,29.29,SSE,167,10.5,10.5,80,0.00,,,0.00,LWC V2.10 B1813,2013-03-28 14:28:00,
2013-03-28 09:33:00,59.0,52.5,29.29,SSE,153,3.6,8.7,79,0.00,,,0.00,LWC V2.10 B1813,2013-03-28 14:33:00,
2013-03-28 09:38:00,59.2,52.7,29.29,ESE,110,3.6,8.7,79,0.00,,,0.00,LWC V2.10 B1813,2013-03-28 14:38:00,
2013-03-28 09:43:00,59.4,52.8,29.29,SSE,161,4.9,9.6,79,0.00,,,0.00,LWC V2.10 B1813,2013-03-28 14:43:00,
2013-03-28 09:48:00,59.5,52.7,29.29,ESE,116,5.8,7.6,78,0.00,,,0.00,LWC V2.10 B1813,2013-03-28 14:48:00,
2013-03-28 09:53:00,59.9,53.0,29.29,South,171,5.4,7.6,78,0.00,,,0.00,LWC V2.10 B1813,2013-03-28 14:53:00,
2013-03-28 09:58:00,59.9,53.0,29.29,SSE,162,3.1,9.6,78,0.00,,,0.00,LWC V2.10 B1813,2013-03-28 14:58:00,
2013-03-28 10:03:00,60.3,53.4,29.29,SSE,147,6.3,8.1,78,0.00,,,0.00,LWC V2.10 B1813,2013-03-28 15:03:00,
2013-03-28 10:09:00,61.3,54.1,29.29,SSE,150,5.8,8.3,77,0.00,,,0.00,LWC V2.10 B1813,2013-03-28 15:09:00,
2013-03-28 10:14:00,61.3,53.3,29.29,SSE,157,8.3,11.0,75,0.00,,,0.00,LWC V2.10 B1813,2013-03-28 15:14:00,
2013-03-28 10:19:00,61.5,53.5,29.29,SSE,148,5.8,10.1,75,0.00,,,0.00,LWC V2.10 B1813,2013-03-28 15:19:00,
2013-03-28 10:24:00,61.7,53.7,29.29,SSE,168,5.4,11.0,75,0.00,,,0.00,LWC V2.10 B1813,2013-03-28 15:24:00,
2013-03-28 10:29:00,61.5,53.2,29.29,SSE,155,7.6,13.2,74,0.00,,,0.00,LWC V2.10 B1813,2013-03-28 15:29:00,
2013-03-28 10:34:00,61.5,53.5,29.29,SE,125,5.8,8.7,75,0.00,,,0.00,LWC V2.10 B1813,2013-03-28 15:34:00,
2013-03-28 10:39:00,61.7,53.7,29.29,ENE,72,11.4,11.4,75,0.00,,,0.00,LWC V2.10 B1813,2013-03-28 15:39:00,
2013-03-28 10:44:00,61.7,53.7,29.29,East,93,6.3,10.1,75,0.00,,,0.00,LWC V2.10 B1813,2013-03-28 15:44:00,
2013-03-28 10:49:00,62.2,53.8,29.29,East,97,4.9,5.8,74,0.00,,,0.00,LWC V2.10 B1813,2013-03-28 15:49:00,
2013-03-28 10:54:00,62.2,53.5,29.29,ESE,106,8.7,11.0,73,0.00,,,0.00,LWC V2.10 B1813,2013-03-28 15:54:00,
2013-03-28 10:59:00,61.9,53.5,29.29,East,85,10.1,10.1,74,0.00,,,0.00,LWC V2.10 B1813,2013-03-28 15:59:00,
2013-03-28 11:04:00,62.4,54.0,29.29,ESE,119,4.0,8.1,74,0.00,,,0.00,LWC V2.10 B1813,2013-03-28 16:04:00,
2013-03-28 11:09:00,62.6,53.8,29.29,East,84,5.8,8.3,73,0.00,,,0.00,LWC V2.10 B1813,2013-03-28 16:09:00,
2013-03-28 11:14:00,62.6,53.8,29.29,ESE,114,13.2,13.2,73,0.00,,,0.00,LWC V2.10 B1813,2013-03-28 16:14:00,
2013-03-28 11:19:00,62.8,54.0,29.29,SE,135,7.6,7.6,73,0.00,,,0.00,LWC V2.10 B1813,2013-03-28 16:19:00,
2013-03-28 11:24:00,63.0,54.2,29.29,ESE,111,9.6,13.6,73,0.00,,,0.00,LWC V2.10 B1813,2013-03-28 16:24:00,
2013-03-28 11:29:00,63.0,54.2,29.29,SSE,167,4.0,6.3,73,0.00,,,0.00,LWC V2.10 B1813,2013-03-28 16:29:00,
2013-03-28 11:34:00,63.0,54.2,29.29,ESE,117,4.0,9.2,73,0.00,,,0.00,LWC V2.10 B1813,2013-03-28 16:34:00,
2013-03-28 11:39:00,63.0,54.2,29.29,SSE,167,8.3,10.1,73,0.00,,,0.00,LWC V2.10 B1813,2013-03-28 16:39:00,
2013-03-28 11:44:00,63.5,54.7,29.29,ESE,106,6.3,8.1,73,0.00,,,0.00,LWC V2.10 B1813,2013-03-28 16:44:00,
2013-03-28 11:49:00,63.7,54.5,29.29,SE,131,8.1,8.7,72,0.00,,,0.00,LWC V2.10 B1813,2013-03-28 16:49:00,
2013-03-28 11:54:00,64.2,55.0,29.29,SSE,167,5.8,7.6,72,0.00,,,0.00,LWC V2.10 B1813,2013-03-28 16:54:00,
2013-03-28 11:59:00,64.2,55.0,29.29,SSW,196,8.3,11.0,72,0.00,,,0.00,LWC V2.10 B1813,2013-03-28 16:59:00,
2013-03-28 12:04:00,64.2,55.0,29.29,SE,124,8.1,8.1,72,0.00,,,0.00,LWC V2.10 B1813,2013-03-28 17:04:00,
2013-03-28 12:09:00,64.4,54.8,29.29,SSE,158,7.2,9.2,71,0.00,,,0.00,LWC V2.10 B1813,2013-03-28 17:09:00,
2013-03-28 12:14:00,64.8,55.1,29.29,SE,143,6.7,6.7,71,0.00,,,0.00,LWC V2.10 B1813,2013-03-28 17:14:00,
2013-03-28 12:19:00,65.1,55.5,29.29,SSE,152,8.7,8.7,71,0.00,,,0.00,LWC V2.10 B1813,2013-03-28 17:19:00,
2013-03-28 12:24:00,65.8,55.8,29.29,South,184,5.4,11.0,70,0.00,,,0.00,LWC V2.10 B1813,2013-03-28 17:24:00,
2013-03-28 12:29:00,66.0,55.9,29.29,SW,233,8.1,12.8,70,0.00,,,0.00,LWC V2.10 B1813,2013-03-28 17:29:00,
2013-03-28 12:34:00,66.0,55.5,29.29,ESE,122,8.1,11.0,69,0.00,,,0.00,LWC V2.10 B1813,2013-03-28 17:34:00,
2013-03-28 12:39:00,66.0,55.5,29.29,SSE,152,8.7,13.2,69,0.00,,,0.00,LWC V2.10 B1813,2013-03-28 17:39:00,
2013-03-28 12:44:00,65.8,55.4,29.29,SSE,166,3.1,13.2,69,0.00,,,0.00,LWC V2.10 B1813,2013-03-28 17:44:00,
2013-03-28 12:49:00,66.2,55.7,29.29,South,181,10.1,12.3,69,0.00,,,0.00,LWC V2.10 B1813,2013-03-28 17:49:00,
2013-03-28 12:54:00,66.4,55.9,29.29,SE,137,11.0,11.0,69,0.00,,,0.00,LWC V2.10 B1813,2013-03-28 17:54:00,
2013-03-28 12:59:00,66.7,55.8,29.29,South,184,6.3,11.0,68,0.00,,,0.00,LWC V2.10 B1813,2013-03-28 17:59:00,
2013-03-28 13:04:00,66.6,55.7,29.29,South,180,10.5,12.3,68,0.00,,,0.00,LWC V2.10 B1813,2013-03-28 18:04:00,
2013-03-28 13:09:00,67.1,55.8,29.29,SSE,150,6.3,12.3,67,0.00,,,0.00,LWC V2.10 B1813,2013-03-28 18:09:00,
2013-03-28 13:14:00,66.7,55.4,29.29,SE,130,8.7,12.8,67,0.00,,,0.00,LWC V2.10 B1813,2013-03-28 18:14:00,
2013-03-28 13:19:00,67.3,55.9,29.29,SW,214,8.1,12.3,67,0.00,,,0.00,LWC V2.10 B1813,2013-03-28 18:19:00,
2013-03-28 13:24:00,67.5,55.7,29.29,East,91,7.6,11.0,66,0.00,,,0.00,LWC V2.10 B1813,2013-03-28 18:24:00,
2013-03-28 13:29:00,67.3,55.5,29.29,South,171,5.4,12.3,66,0.00,,,0.00,LWC V2.10 B1813,2013-03-28 18:29:00,
2013-03-28 13:34:00,67.3,55.5,29.29,ESE,116,5.4,13.2,66,0.00,,,0.00,LWC V2.10 B1813,2013-03-28 18:34:00,
2013-03-28 13:39:00,67.5,55.7,29.29,SW,219,8.1,11.0,66,0.00,,,0.00,LWC V2.10 B1813,2013-03-28 18:39:00,
2013-03-28 13:44:00,67.6,55.9,29.29,ESE,115,5.4,10.1,66,0.00,,,0.00,LWC V2.10 B1813,2013-03-28 18:44:00,
2013-03-28 13:49:00,68.0,55.8,29.29,South,184,8.7,8.7,65,0.00,,,0.00,LWC V2.10 B1813,2013-03-28 18:49:00,
2013-03-28 13:54:00,67.6,55.4,29.29,South,179,8.1,8.1,65,0.00,,,0.00,LWC V2.10 B1813,2013-03-28 18:54:00,
2013-03-28 13:59:00,67.6,55.4,29.29,SE,134,8.3,8.3,65,0.00,,,0.00,LWC V2.10 B1813,2013-03-28 18:59:00,
2013-03-28 14:04:00,67.6,55.4,29.29,SSE,150,2.7,4.9,65,0.00,,,0.00,LWC V2.10 B1813,2013-03-28 19:04:00,
2013-03-28 14:09:00,68.0,55.8,29.29,SW,220,7.2,7.2,65,0.00,,,0.00,LWC V2.10 B1813,2013-03-28 19:09:00,
2013-03-28 14:14:00,68.5,55.9,29.29,South,170,4.0,10.5,64,0.00,,,0.00,LWC V2.10 B1813,2013-03-28 19:14:00,
2013-03-28 14:19:00,68.9,55.8,29.29,SW,231,5.8,12.8,63,0.00,,,0.00,LWC V2.10 B1813,2013-03-28 19:19:00,
2013-03-28 14:24:00,69.4,55.8,29.29,SSW,208,8.1,8.1,62,0.00,,,0.00,LWC V2.10 B1813,2013-03-28 19:24:00,
2013-03-28 14:29:00,70.0,55.9,29.26,South,182,8.1,11.0,61,0.00,,,0.00,LWC V2.10 B1813,2013-03-28 19:29:00,
2013-03-28 14:34:00,70.3,55.8,29.26,SSW,204,8.7,11.0,60,0.00,,,0.00,LWC V2.10 B1813,2013-03-28 19:34:00,
2013-03-28 14:39:00,70.5,55.5,29.26,SSE,155,8.1,8.3,59,0.00,,,0.00,LWC V2.10 B1813,2013-03-28 19:39:00,
2013-03-28 14:44:00,70.3,55.3,29.26,SSW,196,8.3,12.3,59,0.00,,,0.00,LWC V2.10 B1813,2013-03-28 19:44:00,
2013-03-28 14:49:00,71.1,55.5,29.26,ESE,113,11.0,11.0,58,0.00,,,0.00,LWC V2.10 B1813,2013-03-28 19:49:00,
2013-03-28 14:54:00,71.6,55.1,29.26,SE,127,5.4,12.8,56,0.00,,,0.00,LWC V2.10 B1813,2013-03-28 19:54:00,
2013-03-28 14:59:00,71.1,54.6,29.24,South,174,8.1,12.3,56,0.00,,,0.00,LWC V2.10 B1813,2013-03-28 19:59:00,
2013-03-28 15:04:00,71.2,54.7,29.24,SSW,196,9.6,9.6,56,0.00,,,0.00,LWC V2.10 B1813,2013-03-28 20:04:00,
2013-03-28 15:09:00,71.2,54.7,29.24,South,184,6.3,12.3,56,0.00,,,0.00,LWC V2.10 B1813,2013-03-28 20:09:00,
2013-03-28 15:14:00,72.5,55.4,29.24,South,169,10.1,12.3,55,0.00,,,0.00,LWC V2.10 B1813,2013-03-28 20:14:00,
2013-03-28 15:19:00,72.3,54.2,29.24,ESE,106,5.4,12.8,53,0.00,,,0.00,LWC V2.10 B1813,2013-03-28 20:19:00,
2013-03-28 15:24:00,72.5,54.9,29.24,South,182,6.3,13.2,54,0.00,,,0.00,LWC V2.10 B1813,2013-03-28 20:24:00,
2013-03-28 15:29:00,71.8,54.2,29.24,South,180,8.7,10.1,54,0.00,,,0.00,LWC V2.10 B1813,2013-03-28 20:29:00,
2013-03-28 15:34:00,71.8,54.2,29.24,SSW,212,8.1,8.7,54,0.00,,,0.00,LWC V2.10 B1813,2013-03-28 20:34:00,
2013-03-28 15:39:00,71.8,54.2,29.24,SSW,193,6.3,8.7,54,0.00,,,0.00,LWC V2.10 B1813,2013-03-28 20:39:00,
2013-03-28 15:44:00,71.8,54.2,29.24,SSW,195,7.6,7.6,54,0.00,,,0.00,LWC V2.10 B1813,2013-03-28 20:44:00,
2013-03-28 15:49:00,71.6,54.1,29.24,ESE,119,15.4,15.4,54,0.00,,,0.00,LWC V2.10 B1813,2013-03-28 20:49:00,
2013-03-28 15:54:00,71.6,54.1,29.24,East,94,7.6,10.1,54,0.00,,,0.00,LWC V2.10 B1813,2013-03-28 20:54:00,
2013-03-28 15:59:00,71.8,53.7,29.24,SE,134,4.9,8.7,53,0.00,,,0.00,LWC V2.10 B1813,2013-03-28 20:59:00,
2013-03-28 16:04:00,71.4,53.9,29.24,SE,124,4.0,8.3,54,0.00,,,0.00,LWC V2.10 B1813,2013-03-28 21:04:00,
2013-03-28 16:09:00,71.8,53.7,29.24,South,181,8.1,11.0,53,0.00,,,0.00,LWC V2.10 B1813,2013-03-28 21:09:00,
2013-03-28 16:14:00,71.8,53.7,29.24,SSE,157,5.8,10.1,53,0.00,,,0.00,LWC V2.10 B1813,2013-03-28 21:14:00,
2013-03-28 16:19:00,71.8,53.7,29.24,SSW,198,5.4,5.8,53,0.00,,,0.00,LWC V2.10 B1813,2013-03-28 21:19:00,
2013-03-28 16:24:00,71.8,53.7,29.24,South,186,8.3,8.3,53,0.00,,,0.00,LWC V2.10 B1813,2013-03-28 21:24:00,
2013-03-28 16:29:00,71.4,53.4,29.24,SSE,155,11.0,12.8,53,0.00,,,0.00,LWC V2.10 B1813,2013-03-28 21:29:00,
2013-03-28 16:34:00,71.2,53.7,29.24,SSE,166,2.7,13.2,54,0.00,,,0.00,LWC V2.10 B1813,2013-03-28 21:34:00,
2013-03-28 16:39:00,71.2,53.7,29.24,SSW,197,5.8,8.3,54,0.00,,,0.00,LWC V2.10 B1813,2013-03-28 21:39:00,
2013-03-28 16:44:00,71.2,54.2,29.24,SSE,150,9.2,9.2,55,0.00,,,0.00,LWC V2.10 B1813,2013-03-28 21:44:00,
2013-03-28 16:49:00,71.6,54.1,29.24,SSE,152,5.4,12.8,54,0.00,,,0.00,LWC V2.10 B1813,2013-03-28 21:49:00,
2013-03-28 16:54:00,71.2,53.7,29.24,SE,140,5.8,12.3,54,0.00,,,0.00,LWC V2.10 B1813,2013-03-28 21:54:00,
2013-03-28 16:59:00,71.2,54.2,29.24,SSW,195,5.8,8.1,55,0.00,,,0.00,LWC V2.10 B1813,2013-03-28 21:59:00,
2013-03-28 17:04:00,71.6,54.6,29.24,South,186,8.1,10.5,55,0.00,,,0.00,LWC V2.10 B1813,2013-03-28 22:04:00,
2013-03-28 17:09:00,71.1,54.1,29.24,South,174,8.7,12.8,55,0.00,,,0.00,LWC V2.10 B1813,2013-03-28 22:09:00,
2013-03-28 17:14:00,70.9,54.4,29.24,SE,145,5.8,7.6,56,0.00,,,0.00,LWC V2.10 B1813,2013-03-28 22:14:00,
2013-03-28 17:19:00,71.1,54.6,29.24,SSW,204,7.6,7.6,56,0.00,,,0.00,LWC V2.10 B1813,2013-03-28 22:19:00,
2013-03-28 17:24:00,70.7,54.2,29.24,SE,139,7.6,8.7,56,0.00,,,0.00,LWC V2.10 B1813,2013-03-28 22:24:00,
2013-03-28 17:29:00,70.9,54.4,29.24,SSE,160,8.3,8.3,56,0.00,,,0.00,LWC V2.10 B1813,2013-03-28 22:29:00,
2013-03-28 17:34:00,70.7,54.2,29.24,South,190,12.3,12.3,56,0.00,,,0.00,LWC V2.10 B1813,2013-03-28 22:34:00,
2013-03-28 17:40:00,70.5,54.1,29.24,South,184,8.1,10.5,56,0.00,,,0.00,LWC V2.10 B1813,2013-03-28 22:40:00,
2013-03-28 17:45:00,70.7,54.2,29.24,SSE,160,7.6,7.6,56,0.00,,,0.00,LWC V2.10 B1813,2013-03-28 22:45:00,
2013-03-28 17:50:00,70.5,54.1,29.24,South,169,8.3,13.2,56,0.00,,,0.00,LWC V2.10 B1813,2013-03-28 22:50:00,
2013-03-28 17:55:00,70.5,54.5,29.24,SSE,149,8.1,10.5,57,0.00,,,0.00,LWC V2.10 B1813,2013-03-28 22:55:00,
2013-03-28 18:00:00,70.5,54.5,29.24,ESE,113,5.4,13.2,57,0.00,,,0.00,LWC V2.10 B1813,2013-03-28 23:00:00,
2013-03-28 18:05:00,70.5,54.5,29.24,South,178,5.8,6.7,57,0.00,,,0.00,LWC V2.10 B1813,2013-03-28 23:05:00,
2013-03-28 18:10:00,70.2,54.2,29.24,South,190,11.0,11.0,57,0.00,,,0.00,LWC V2.10 B1813,2013-03-28 23:10:00,
2013-03-28 18:15:00,70.2,54.7,29.24,South,190,5.8,11.0,58,0.00,,,0.00,LWC V2.10 B1813,2013-03-28 23:15:00,
2013-03-28 18:20:00,70.3,54.8,29.24,SSW,211,5.4,10.5,58,0.00,,,0.00,LWC V2.10 B1813,2013-03-28 23:20:00,
2013-03-28 18:25:00,70.2,54.2,29.24,South,183,5.4,11.0,57,0.00,,,0.00,LWC V2.10 B1813,2013-03-28 23:25:00,
2013-03-28 18:30:00,70.2,54.2,29.24,SSE,168,3.6,8.7,57,0.00,,,0.00,LWC V2.10 B1813,2013-03-28 23:30:00,
2013-03-28 18:35:00,70.0,54.5,29.24,SSW,207,7.6,9.2,58,0.00,,,0.00,LWC V2.10 B1813,2013-03-28 23:35:00,
2013-03-28 18:40:00,69.8,54.3,29.24,SSW,194,4.9,8.7,58,0.00,,,0.00,LWC V2.10 B1813,2013-03-28 23:40:00,
2013-03-28 18:45:00,69.8,54.3,29.24,South,177,5.8,8.7,58,0.00,,,0.00,LWC V2.10 B1813,2013-03-28 23:45:00,
2013-03-28 18:50:00,69.6,54.2,29.24,SE,145,5.8,12.3,58,0.00,,,0.00,LWC V2.10 B1813,2013-03-28 23:50:00,
2013-03-28 18:55:00,69.4,54.5,29.24,SSW,195,6.3,10.1,59,0.00,,,0.00,LWC V2.10 B1813,2013-03-28 23:55:00,
2013-03-28 19:00:00,69.3,54.3,29.24,ESE,118,7.6,13.2,59,0.00,,,0.00,LWC V2.10 B1813,2013-03-29 00:00:00,
2013-03-28 19:05:00,69.3,54.3,29.24,SE,138,4.0,8.7,59,0.00,,,0.00,LWC V2.10 B1813,2013-03-29 00:05:00,
2013-03-28 19:10:00,69.1,54.6,29.24,SSE,158,3.6,6.3,60,0.00,,,0.00,LWC V2.10 B1813,2013-03-29 00:10:00,
2013-03-28 19:15:00,69.1,54.6,29.24,South,175,8.1,8.1,60,0.00,,,0.00,LWC V2.10 B1813,2013-03-29 00:15:00,
2013-03-28 19:20:00,68.9,54.4,29.24,SSE,161,6.3,10.5,60,0.00,,,0.00,LWC V2.10 B1813,2013-03-29 00:20:00,
2013-03-28 19:25:00,68.9,54.4,29.24,South,178,8.3,8.3,60,0.00,,,0.00,LWC V2.10 B1813,2013-03-29 00:25:00,
2013-03-28 19:30:00,68.7,54.7,29.24,SE,145,5.4,5.8,61,0.00,,,0.00,LWC V2.10 B1813,2013-03-29 00:30:00,
2013-03-28 19:35:00,68.7,54.7,29.24,East,93,8.3,9.6,61,0.00,,,0.00,LWC V2.10 B1813,2013-03-29 00:35:00,
2013-03-28 19:40:00,68.5,54.5,29.24,SSE,161,4.0,8.3,61,0.00,,,0.00,LWC V2.10 B1813,2013-03-29 00:40:00,
2013-03-28 19:45:00,68.4,54.8,29.24,SE,145,9.6,9.6,62,0.00,,,0.00,LWC V2.10 B1813,2013-03-29 00:45:00,
2013-03-28 19:50:00,68.2,54.7,29.24,South,190,5.4,11.0,62,0.00,,,0.00,LWC V2.10 B1813,2013-03-29 00:50:00,
2013-03-28 19:55:00,68.0,54.9,29.24,SSE,147,10.1,12.8,63,0.00,,,0.00,LWC V2.10 B1813,2013-03-29 00:55:00,
2013-03-28 20:00:00,67.8,55.2,29.24,South,169,6.3,10.5,64,0.00,,,0.00,LWC V2.10 B1813,2013-03-29 01:00:00,
2013-03-28 20:05:00,67.5,54.8,29.24,SSE,160,5.8,8.3,64,0.00,,,0.00,LWC V2.10 B1813,2013-03-29 01:05:00,
2013-03-28 20:10:00,67.5,55.3,29.24,SSE,149,8.1,11.9,65,0.00,,,0.00,LWC V2.10 B1813,2013-03-29 01:10:00,
2013-03-28 20:15:00,67.5,55.3,29.26,East,81,5.8,10.1,65,0.00,,,0.00,LWC V2.10 B1813,2013-03-29 01:15:00,
2013-03-28 20:20:00,67.5,55.3,29.26,SE,125,7.6,8.1,65,0.00,,,0.00,LWC V2.10 B1813,2013-03-29 01:20:00,
2013-03-28 20:25:00,67.5,55.3,29.26,South,182,4.0,5.4,65,0.00,,,0.00,LWC V2.10 B1813,2013-03-29 01:25:00,
2013-03-28 20:30:00,67.3,55.1,29.26,SSW,201,2.7,8.1,65,0.00,,,0.00,LWC V2.10 B1813,2013-03-29 01:30:00,
2013-03-28 20:35:00,67.3,55.1,29.26,ESE,119,3.1,6.3,65,0.00,,,0.00,LWC V2.10 B1813,2013-03-29 01:35:00,
2013-03-28 20:40:00,67.3,55.1,29.26,SE,136,7.6,9.6,65,0.00,,,0.00,LWC V2.10 B1813,2013-03-29 01:40:00,
2013-03-28 20:45:00,67.1,55.4,29.26,ESE,111,5.8,8.1,66,0.00,,,0.00,LWC V2.10 B1813,2013-03-29 01:45:00,
2013-03-28 20:50:00,67.1,55.4,29.26,SSE,151,3.1,7.6,66,0.00,,,0.00,LWC V2.10 B1813,2013-03-29 01:50:00,
2013-03-28 20:55:00,67.1,55.4,29.26,SE,146,5.4,9.6,66,0.00,,,0.00,LWC V2.10 B1813,2013-03-29 01:55:00,
2013-03-28 21:00:00,67.1,55.4,29.26,SSE,159,4.0,8.7,66,0.00,,,0.00,LWC V2.10 B1813,2013-03-29 02:00:00,
2013-03-28 21:05:00,66.9,55.2,29.26,ESE,103,4.5,8.1,66,0.00,,,0.00,LWC V2.10 B1813,2013-03-29 02:05:00,
2013-03-28 21:10:00,66.9,55.2,29.26,SSE,158,3.1,6.3,66,0.00,,,0.00,LWC V2.10 B1813,2013-03-29 02:10:00,
2013-03-28 21:15:00,66.7,55.0,29.26,SSE,148,4.0,5.8,66,0.00,,,0.00,LWC V2.10 B1813,2013-03-29 02:15:00,
2013-03-28 21:20:00,66.7,55.0,29.26,SSE,165,3.6,5.4,66,0.00,,,0.00,LWC V2.10 B1813,2013-03-29 02:20:00,
2013-03-28 21:25:00,66.7,55.0,29.26,ENE,78,4.9,8.3,66,0.00,,,0.00,LWC V2.10 B1813,2013-03-29 02:25:00,
2013-03-28 21:30:00,66.7,55.4,29.26,SE,146,3.6,7.6,67,0.00,,,0.00,LWC V2.10 B1813,2013-03-29 02:30:00,
2013-03-28 21:35:00,66.6,55.3,29.26,SE,131,5.8,5.8,67,0.00,,,0.00,LWC V2.10 B1813,2013-03-29 02:35:00,
2013-03-28 21:40:00,66.6,55.3,29.26,SSE,168,4.9,8.7,67,0.00,,,0.00,LWC V2.10 B1813,2013-03-29 02:40:00,
2013-03-28 21:45:00,66.6,55.3,29.26,South,182,8.3,12.3,67,0.00,,,0.00,LWC V2.10 B1813,2013-03-29 02:45:00,
2013-03-28 21:50:00,66.4,55.1,29.26,SE,142,5.8,7.6,67,0.00,,,0.00,LWC V2.10 B1813,2013-03-29 02:50:00,
2013-03-28 21:55:00,66.6,55.3,29.26,SSE,152,10.5,10.5,67,0.00,,,0.00,LWC V2.10 B1813,2013-03-29 02:55:00,
2013-03-28 22:00:00,66.6,55.3,29.26,SE,136,5.4,8.3,67,0.00,,,0.00,LWC V2.10 B1813,2013-03-29 03:00:00,
2013-03-28 22:05:00,66.6,55.3,29.26,ESE,104,6.3,6.3,67,0.00,,,0.00,LWC V2.10 B1813,2013-03-29 03:05:00,
2013-03-28 22:10:00,66.6,55.3,29.26,ESE,122,5.8,8.3,67,0.00,,,0.00,LWC V2.10 B1813,2013-03-29 03:10:00,
2013-03-28 22:15:00,66.4,55.1,29.26,SE,140,4.0,8.1,67,0.00,,,0.00,LWC V2.10 B1813,2013-03-29 03:15:00,
2013-03-28 22:20:00,66.6,55.3,29.26,ESE,119,8.7,8.7,67,0.00,,,0.00,LWC V2.10 B1813,2013-03-29 03:20:00,
2013-03-28 22:25:00,66.6,55.3,29.26,SSE,165,5.8,7.6,67,0.00,,,0.00,LWC V2.10 B1813,2013-03-29 03:25:00,
2013-03-28 22:30:00,66.6,55.3,29.24,SSE,166,4.0,5.8,67,0.00,,,0.00,LWC V2.10 B1813,2013-03-29 03:30:00,
2013-03-28 22:35:00,66.4,55.1,29.24,SE,136,6.3,8.7,67,0.00,,,0.00,LWC V2.10 B1813,2013-03-29 03:35:00,
2013-03-28 22:40:00,66.4,55.1,29.24,SSE,167,4.0,8.7,67,0.00,,,0.00,LWC V2.10 B1813,2013-03-29 03:40:00,
2013-03-28 22:45:00,66.4,55.1,29.26,South,171,5.8,8.3,67,0.00,,,0.00,LWC V2.10 B1813,2013-03-29 03:45:00,
2013-03-28 22:50:00,66.4,55.1,29.26,SSE,154,8.7,8.7,67,0.00,,,0.00,LWC V2.10 B1813,2013-03-29 03:50:00,
2013-03-28 22:55:00,66.2,54.9,29.26,SE,129,4.0,4.9,67,0.00,,,0.00,LWC V2.10 B1813,2013-03-29 03:55:00,
2013-03-28 23:00:00,66.0,55.1,29.26,SE,140,8.1,8.7,68,0.00,,,0.00,LWC V2.10 B1813,2013-03-29 04:00:00,
2013-03-28 23:01:00,66.0,55.1,29.26,SE,138,5.8,7.2,68,0.00,,,0.00,LWC V2.10 B1813,2013-03-29 04:01:00,
2013-03-28 23:06:00,65.7,54.8,29.26,SE,132,8.1,8.1,68,0.00,,,0.00,LWC V2.10 B1813,2013-03-29 04:06:00,
2013-03-28 23:11:00,65.5,55.0,29.26,SSE,150,5.4,8.7,69,0.00,,,0.00,LWC V2.10 B1813,2013-03-29 04:11:00,
2013-03-28 23:16:00,65.3,54.9,29.26,SSE,160,6.3,8.7,69,0.00,,,0.00,LWC V2.10 B1813,2013-03-29 04:16:00,
2013-03-28 23:21:00,65.1,55.1,29.26,SSE,155,5.4,7.6,70,0.00,,,0.00,LWC V2.10 B1813,2013-03-29 04:21:00,
2013-03-28 23:26:00,65.1,55.1,29.26,SE,139,4.0,12.8,70,0.00,,,0.00,LWC V2.10 B1813,2013-03-29 04:26:00,
2013-03-28 23:31:00,64.9,54.9,29.26,ESE,105,5.4,8.1,70,0.00,,,0.00,LWC V2.10 B1813,2013-03-29 04:31:00,
2013-03-28 23:36:00,64.6,54.6,29.26,SSE,163,6.3,11.9,70,0.00,,,0.00,LWC V2.10 B1813,2013-03-29 04:36:00,
2013-03-28 23:41:00,64.4,54.8,29.26,SSE,167,7.6,10.5,71,0.00,,,0.00,LWC V2.10 B1813,2013-03-29 04:41:00,
2013-03-28 23:46:00,64.2,55.0,29.26,SSE,162,12.8,12.8,72,0.00,,,0.00,LWC V2.10 B1813,2013-03-29 04:46:00,
2013-03-28 23:51:00,64.0,55.2,29.26,East,94,6.7,8.1,73,0.00,,,0.00,LWC V2.10 B1813,2013-03-29 04:51:00,
2013-03-28 23:56:00,63.9,55.0,29.26,SE,124,10.1,10.1,73,0.00,,,0.00,LWC V2.10 B1813,2013-03-29 04:56:00,